Regional Weather Roundup
Issued by NWS Cleveland, OH

Home | Current Version | Previous Version | Text Only | Print | Product List | Glossary Off
Versions: 1 2 3 4 5 6 7 8 9 10 11 12 13 14 15 16 17 18 19 20 21 22 23 24 25 26 27 28 29 30 31 32 33 34 35 36 37 38 39 40 41 42 43 44 45 46 47 48 49 50

000
ASUS41 KCLE 251402
RWRCLE
OHIO REGIONAL WEATHER ROUNDUP
NATIONAL WEATHER SERVICE CLEVELAND, OH
1000 AM EDT SAT OCT 25 2014

NOTE: "FAIR" INDICATES FEW OR NO CLOUDS BELOW 12,000 FEET WITH NO
SIGNIFICANT WEATHER AND/OR OBSTRUCTIONS TO VISIBILITY.

OHZ001>008-015>018-024>027-034-035-043-044-251500-
   NORTHWEST OHIO

CITY           SKY/WX    TMP DP  RH WIND       PRES   REMARKS
DEFIANCE       SUNNY     58  52  80 SW9       29.90R
FINDLAY        MOSUNNY   59  50  72 SW10      29.89F HAZE
TOLEDO EXPRESS SUNNY     57  52  83 W12       29.87F HAZE
TOLEDO EXEC    SUNNY     57  51  80 W14       29.88F
LIMA           CLOUDY    59  51  75 SW16      29.92F
$$

OHZ009>014-019>023-028>033-038-089-251500-
   NORTHEAST OHIO

CITY           SKY/WX    TMP DP  RH WIND       PRES   REMARKS
CLE-HOPKINS    PTSUNNY   54  48  80 SW14      29.89F
CLE-LAKEFRONT  PTSUNNY   58  49  72 S21G29    29.85F
CUY CO. ARPT   PTSUNNY   57  52  82 SW10G18   29.87F
LORAIN-ELYRIA  CLOUDY    54  50  86 SW10      29.88F
ASHTABULA      MOSUNNY   54  46  74 SW13      29.85F
AKRON-CANTON   CLOUDY    51  45  79 SW7       29.93S
WOOSTER        CLOUDY    52  45  77 SW7       29.93F
MANSFIELD      CLOUDY    57  51  80 SW13      29.92F
YOUNGSTOWN     PTSUNNY   52  45  77 SW9       29.90F
$$

OHZ042-051>053-060>062-070>072-077>081-251500-
  SOUTHWEST OHIO

CITY           SKY/WX    TMP DP  RH WIND       PRES   REMARKS
CINC-COVINGTON CLOUDY    55  49  80 SW7       30.00R
CINC-LUNKEN    CLOUDY    51  49  92 SW5       30.01S
HAMILTON       CLOUDY    53  50  89 CALM      30.00S FOG
DAYTON         CLOUDY    55  50  83 SW10      29.98R
WRIGHT-PAT AFB NOT AVBL
DAYTON GENERAL CLOUDY    54  49  83 S8        29.97F
WILMINGTON     CLOUDY    54  49  83 SW10      29.98F
$$

OHZ036-037-039>041-045>050-054>059-063>069-073>076-082>088-251500-
  CENTRAL AND SOUTHEAST OHIO

CITY           SKY/WX    TMP DP  RH WIND       PRES   REMARKS
COLUMBUS       CLOUDY    50  44  80 S5        29.97F
OSU AIRPORT    CLOUDY    53  47  79 SW8       29.96S
BOLTON FIELD   PTSUNNY   54  48  82 SW7       29.97S
RICKENBACK AFB NOT AVBL
NEWARK         CLOUDY    52  45  77 S5        29.97S
MARION         CLOUDY    54  48  80 S9        29.94S HAZE
LANCASTER      CLOUDY    56  48  74 SW7       29.98S
ZANESVILLE     CLOUDY    48  43  82 S6        29.98S
NEW PHILLY     CLOUDY    48  43  82 SE5       29.97S
$$



USA.gov is the U.S. government's official web portal to all federal, state and local government web resources and services.